AZA1297 EIDW-LIRF

Flight info

Callsign AZA1297
Flight time N/A
Altitude 33000
Route PESIT4E PESIT DCT BAKUR DCT GUBJE DCT DAVAZ DCT AVZAC DCT ICOSA DCT RUHUN DCT UNZIB DCT NUCHU DCT BOGNA UL612 RESMI/N0438F350 UL612 OGULO DCT OKASI DCT OKEKO DCT MOU DCT MADIV DCT MOKIP DCT TUFTA DCT KOGAS DCT MEDAM DCT NITAM DCT MOGBO DCT ELB/N0436F360 DCT ELKAP
Aircraft MD82/M-SDFGIRWY/S

Departure

Time 2026-05-04 10:04
Airport Dublin Airport (EIDW)

Arrival

Time N/A
Airport Rome–Fiumicino Leonardo da Vinci International Airport (LIRF)
Time Latitude Longitude Altitude Speed Heading
2026-05-04 09:21 53.42568 -6.24679 217 ft 0 kts 71°
2026-05-04 09:49 53.42565 -6.24694 219 ft 4 kts 71°
2026-05-04 09:51 53.42493 -6.24791 217 ft 1 kts 337°
2026-05-04 09:53 53.42496 -6.24793 217 ft 3 kts 337°
2026-05-04 09:53 53.42515 -6.24807 217 ft 3 kts 337°
2026-05-04 09:53 53.42544 -6.24828 219 ft 6 kts 337°
2026-05-04 09:53 53.42585 -6.24857 216 ft 7 kts 337°
2026-05-04 09:54 53.42629 -6.24890 215 ft 7 kts 331°
2026-05-04 09:54 53.42672 -6.24933 214 ft 7 kts 329°
2026-05-04 09:54 53.42718 -6.24980 214 ft 8 kts 328°
2026-05-04 09:54 53.42765 -6.25030 218 ft 8 kts 326°
2026-05-04 09:55 53.42792 -6.25102 215 ft 7 kts 277°
2026-05-04 09:55 53.42796 -6.25184 211 ft 7 kts 274°
2026-05-04 09:55 53.42785 -6.25267 217 ft 8 kts 234°
2026-05-04 09:55 53.42756 -6.25319 217 ft 4 kts 226°
2026-05-04 09:56 53.42702 -6.25413 216 ft 17 kts 226°
2026-05-04 09:56 53.42615 -6.25560 218 ft 18 kts 225°
2026-05-04 09:56 53.42525 -6.25712 212 ft 18 kts 226°
2026-05-04 09:56 53.42435 -6.25866 221 ft 19 kts 225°
2026-05-04 09:57 53.42345 -6.26022 219 ft 19 kts 226°
2026-05-04 09:57 53.42273 -6.26201 218 ft 18 kts 254°
2026-05-04 09:57 53.42272 -6.26414 215 ft 18 kts 275°
2026-05-04 09:57 53.42284 -6.26622 216 ft 18 kts 275°
2026-05-04 09:58 53.42296 -6.26830 214 ft 18 kts 276°
2026-05-04 09:58 53.42308 -6.27039 220 ft 18 kts 275°
2026-05-04 09:58 53.42319 -6.27254 211 ft 19 kts 275°
2026-05-04 10:00 53.42398 -6.28683 211 ft 18 kts 275°
2026-05-04 10:00 53.42411 -6.28894 219 ft 18 kts 276°
2026-05-04 10:02 53.42208 -6.28342 221 ft 74 kts 95°
2026-05-04 10:04 53.41241 -6.14791 3842 ft 207 kts 89°
2026-05-04 10:04 53.41184 -6.12267 4453 ft 226 kts 89°
2026-05-04 10:04 53.41110 -6.09537 5127 ft 242 kts 90°
2026-05-04 10:04 53.41017 -6.06644 5736 ft 256 kts 91°
2026-05-04 10:05 53.40809 -6.03604 6348 ft 270 kts 105°
2026-05-04 10:05 53.39841 -6.00874 7069 ft 280 kts 136°
2026-05-04 10:05 53.38156 -5.99266 7894 ft 283 kts 166°
2026-05-04 10:05 53.36190 -5.99109 8595 ft 290 kts 188°
2026-05-04 10:06 53.34156 -5.99724 8889 ft 301 kts 191°
2026-05-04 10:06 53.32105 -6.00408 8990 ft 298 kts 191°
2026-05-04 10:06 53.30052 -6.01094 9180 ft 308 kts 191°
2026-05-04 10:08 53.16434 -6.07342 12452 ft 363 kts 186°
2026-05-04 10:08 53.13911 -6.07733 13199 ft 365 kts 184°
2026-05-04 10:08 53.11362 -6.07966 13857 ft 369 kts 175°
2026-05-04 10:08 53.08831 -6.07188 14450 ft 372 kts 163°
2026-05-04 10:09 53.06340 -6.05947 15061 ft 375 kts 161°
2026-05-04 10:09 53.03840 -6.04663 15686 ft 378 kts 161°
2026-05-04 10:09 53.01314 -6.03391 16308 ft 381 kts 161°
2026-05-04 10:09 52.98763 -6.02125 16919 ft 384 kts 162°
2026-05-04 10:10 52.96193 -6.00881 17529 ft 387 kts 162°
2026-05-04 10:10 52.93594 -5.99661 18119 ft 390 kts 162°
2026-05-04 10:10 52.90963 -5.98458 18649 ft 393 kts 162°
2026-05-04 10:10 52.88315 -5.97262 19129 ft 396 kts 163°
2026-05-04 10:11 52.85642 -5.96065 19633 ft 399 kts 162°
2026-05-04 10:11 52.82954 -5.94863 20117 ft 402 kts 162°
2026-05-04 10:11 52.80238 -5.93648 20598 ft 405 kts 162°
2026-05-04 10:11 52.77548 -5.92443 21081 ft 407 kts 162°
2026-05-04 10:12 52.74802 -5.91211 21543 ft 410 kts 162°
2026-05-04 10:12 52.72044 -5.89973 22000 ft 413 kts 162°
2026-05-04 10:12 52.69260 -5.88724 22439 ft 416 kts 162°
2026-05-04 10:12 52.66454 -5.87466 22898 ft 419 kts 162°
2026-05-04 10:13 52.63762 -5.86260 23333 ft 421 kts 161°
2026-05-04 10:13 52.60916 -5.84988 23746 ft 425 kts 161°
2026-05-04 10:13 52.58141 -5.83750 24108 ft 427 kts 161°
2026-05-04 10:13 52.55268 -5.82471 24509 ft 429 kts 161°
2026-05-04 10:14 52.52387 -5.81188 24867 ft 431 kts 161°
2026-05-04 10:14 52.49481 -5.79895 25248 ft 433 kts 161°
2026-05-04 10:16 52.28840 -5.70332 27703 ft 448 kts 159°
2026-05-04 10:16 52.25845 -5.68860 28000 ft 451 kts 159°
2026-05-04 10:16 52.22860 -5.67289 28299 ft 451 kts 155°
2026-05-04 10:16 52.19940 -5.65407 28700 ft 449 kts 153°
2026-05-04 10:17 52.17078 -5.63410 29220 ft 446 kts 152°
2026-05-04 10:17 52.14239 -5.61409 29746 ft 443 kts 152°
2026-05-04 10:19 51.94630 -5.47679 32320 ft 433 kts 153°
2026-05-04 10:19 51.91878 -5.45684 32579 ft 433 kts 153°
2026-05-04 10:19 51.89291 -5.43259 32826 ft 427 kts 137°
2026-05-04 10:19 51.87327 -5.39711 32971 ft 424 kts 119°
2026-05-04 10:20 51.84684 -5.31248 33028 ft 425 kts 112°
2026-05-04 10:20 51.82295 -5.22552 33026 ft 421 kts 112°
2026-05-04 10:21 51.79912 -5.13958 33033 ft 419 kts 114°
2026-05-04 10:21 51.77583 -5.05350 33027 ft 417 kts 105°
2026-05-04 10:22 51.75874 -4.91498 33040 ft 422 kts 100°
2026-05-04 10:23 51.74828 -4.82145 33027 ft 423 kts 100°
2026-05-04 10:25 51.70326 -4.44996 33020 ft 424 kts 101°
2026-05-04 10:25 51.69174 -4.35719 33018 ft 425 kts 102°
2026-05-04 10:26 51.67917 -4.26394 33021 ft 425 kts 102°
2026-05-04 10:26 51.66714 -4.17072 33017 ft 424 kts 102°
2026-05-04 10:27 51.65561 -4.07738 33023 ft 425 kts 102°
2026-05-04 10:27 51.64418 -3.98382 33022 ft 426 kts 102°
2026-05-04 10:28 51.63267 -3.89014 33028 ft 427 kts 102°
2026-05-04 10:28 51.62068 -3.79614 33024 ft 429 kts 103°
2026-05-04 10:29 51.60814 -3.70233 33019 ft 429 kts 103°
2026-05-04 10:29 51.59591 -3.60898 33021 ft 429 kts 103°
2026-05-04 10:30 51.58803 -3.51354 33029 ft 431 kts 96°
2026-05-04 10:30 51.58332 -3.41748 33027 ft 432 kts 96°
2026-05-04 10:31 51.57826 -3.32120 33020 ft 432 kts 97°
2026-05-04 10:32 51.55789 -2.98455 33060 ft 434 kts 97°
2026-05-04 10:33 51.55203 -2.88794 33057 ft 434 kts 98°
2026-05-04 10:33 51.54567 -2.79201 33022 ft 435 kts 98°
2026-05-04 10:34 51.53912 -2.69469 33020 ft 435 kts 98°
2026-05-04 10:34 51.53275 -2.59875 33019 ft 436 kts 98°
2026-05-04 10:35 51.52639 -2.50184 33022 ft 436 kts 98°
2026-05-04 10:35 51.52001 -2.40487 33026 ft 437 kts 98°
2026-05-04 10:36 51.51365 -2.30790 33023 ft 438 kts 98°
2026-05-04 10:36 51.50705 -2.21073 33030 ft 437 kts 99°
2026-05-04 10:37 51.49989 -2.11373 33029 ft 437 kts 99°
2026-05-04 10:37 51.49330 -2.01688 33035 ft 437 kts 98°
2026-05-04 10:39 51.46495 -1.67881 33025 ft 432 kts 117°
2026-05-04 10:39 51.44984 -1.63789 33049 ft 426 kts 131°
2026-05-04 10:40 51.43109 -1.60094 33042 ft 426 kts 134°
2026-05-04 10:40 51.39880 -1.54140 33026 ft 427 kts 134°
2026-05-04 10:41 51.35956 -1.46976 33013 ft 427 kts 134°